User: anonymous   Login
Location: Unspecified
(0.0000°N, 0.0000°E)
Time: 15:24:49
(UTC+00:00)
Language:

XW-2F - Orbit

View from above orbital plane
View from above orbital plane
View from above satellite
View from above satellite

Ground track
Ground track

The orbit data is extracted from the following two-line orbital elements,

1 40910U 15049M   21330.97733838  .00002676  00000-0  12779-3 0  9990
2 40910  97.4741 334.5547 0013163 330.3675  85.3869 15.19855934342402
Epoch (UTC): 26 November 2021 23:27:22
Eccentricity: 0.0013163
inclination: 97.4741°
perigee height: 497 km
apogee height: 515 km
right ascension of ascending node: 334.5547°
argument of perigee: 330.3675°
revolutions per day: 15.19855934
mean anomaly at epoch: 85.3869°
orbit number at epoch: 34240

The dashed part of the orbit path shows where the satellite is in the earth's shadow,  

DLR